Regional Weather Roundup
Issued by NWS

Current Version | Previous Version | Text Only | Print | Product List | Glossary On
Versions: 1 2 3 4 5 6 7 8 9 10 11 12 13 14 15 16 17 18 19 20 21 22 23 24 25 26 27 28 29 30 31 32 33 34 35 36 37 38 39 40 41 42 43 44 45 46 47 48 49 50
000
ASUS43 KDMX 040606
RWRIA

WEATHER ROUNDUP FOR IOWA
NATIONAL WEATHER SERVICE DES MOINES IA
100 AM CDT TUE OCT 04 2022

NOTE: "FAIR" INDICATES FEW OR NO CLOUDS BELOW 12,000 FEET WITH NO
SIGNIFICANT WEATHER AND/OR OBSTRUCTIONS TO VISIBILITY.

* - THESE STATIONS ARE NOT NWS STATIONS...THUS NOT UNDER NWS
QUALITY CONTROL.  THEY ALSO DO NOT REPORT WEATHER SUCH
AS PRECIPITATION OR FOG.

IAZ001>003-012>014-020>022-031>034-043>046-040700-
   NORTHWEST IOWA

CITY           SKY/WX    TMP DP  RH WIND       PRES   REMARKS
CARROLL *      MOCLDY    54  50  87 CALM      30.19  FOG
CHEROKEE *     MOCLDY    57  45  63 CALM      30.17
DENISON *      MOCLDY    63  48  59 S9G15     30.19S
LE MARS *      MOCLDY    59  45  58 S6        30.14
MAURICE *      MOCLDY    61  45  55 S9        30.14
SHELDON *      MOCLDY    61  45  55 S10       30.14
SIOUX CITY     MOCLDY    55  44  66 E7        30.15S
6HR MIN TEMP:  55; 6HR MAX TEMP:  75;

SPENCER        MOCLDY    62  45  53 S9        30.18F
6HR MIN TEMP:  57; 6HR MAX TEMP:  71;

STORM LAKE *   MOCLDY    54  46  76 SE9       30.19
$$

IAZ055>058-069>071-079>083-090>094-040700-
   SOUTHWEST IOWA

CITY           SKY/WX    TMP DP  RH WIND       PRES   REMARKS
ATLANTIC *     MOCLDY    55  52  88 CALM      30.18
AUDUBON *      MOCLDY    48  45  87 CALM      30.21
CLARINDA *     MOCLDY    59  48  67 VRB5      30.21
COUNCIL BLFS * MOCLDY    61  45  55 SE9       30.15
CRESTON *      MOCLDY    57  50  77 SE7       30.20
HARLAN  *      CLEAR     52  48  87 CALM      30.19
LAMONI         PTCLDY    58  45  62 SE6       30.22S
6HR MIN TEMP:  58; 6HR MAX TEMP:  70;

RED OAK *      MOCLDY    59  50  72 S5        30.18
SHENANDOAH *     N/A     61  50  67 SE7       30.16
$$

IAZ047>049-059>061-072>074-084-040700-
   CENTRAL IOWA

CITY           SKY/WX    TMP DP  RH WIND       PRES   REMARKS
AMES           PTCLDY    52  47  83 CALM      30.21R
6HR MIN TEMP:  50; 6HR MAX TEMP:  63;

ANKENY *       PTCLDY    57  46  67 CALM      30.22
BOONE *        PTCLDY    54  50  87 SE6       30.23
CHARITON *     PTCLDY    54  46  76 SE7       30.21
DES MOINES     PTCLDY    59  47  64 S7        30.21S
6HR MIN TEMP:  59; 6HR MAX TEMP:  71;

GRINNELL*      PTCLDY    57  47  69 SE5       30.24
KNOXVILLE *    PTCLDY    55  45  67 SE6       30.22
MARSHALLTOWN   PTCLDY    50  42  74 SE7       30.22S
6HR MIN TEMP:  49; 6HR MAX TEMP:  64;

NEWTON *       CLEAR     52  46  82 SE8       30.22
PELLA *        PTCLDY    56  45  66 SE6       30.23
$$

IAZ004>006-015-016-023>025-035-036-040700-
   NORTH CENTRAL IOWA

CITY           SKY/WX    TMP DP  RH WIND       PRES   REMARKS
ALGONA *       CLEAR     61  52  72 S10       30.19
CLARION *      PTCLDY    54  46  76 S6        30.21
ESTHERVILLE    MOCLDY    59  47  64 S7        30.18F
6HR MIN TEMP:  58; 6HR MAX TEMP:  69;

FORT DODGE *   MOCLDY    60  49  66 S6        30.21S
MASON CITY     MOCLDY    51  43  74 S6        30.23R
6HR MIN TEMP:  48; 6HR MAX TEMP:  64;

FOREST CITY *  FAIR      50  45  81 CALM      30.22
WEBSTER CITY * PTCLDY    57  50  77 S7        30.20
IOWA FALLS *   FAIR      52  46  78 SE6       30.23
$$

IAZ007>011-017>019-026>030-037>042-050>054-066-040700-
   NORTHEAST IOWA

CITY           SKY/WX    TMP DP  RH WIND       PRES   REMARKS
CEDAR RAPIDS   PTCLDY    50  41  71 SE5       30.24S
6HR MIN TEMP:  49; 6HR MAX TEMP:  61;

CHARLES CITY * MOCLDY    54  45  71 SE7       30.23
CLINTON *      CLEAR     44  41  89 E5        30.27S
DECORAH *      CLOUDY    55  43  62 S6        30.23
DUBUQUE        PTCLDY    50  41  71 S3        30.26S
6HR MIN TEMP:  50; 6HR MAX TEMP:  59;

OELWEIN *      CLEAR     52  43  71 SE8       30.24
WATERLOO       PTCLDY    56  44  64 SE7       30.22F
6HR MIN TEMP:  56; 6HR MAX TEMP:  67;

$$

IAZ064-065-067-068-078-040700-
   EAST CENTRAL IOWA

CITY           SKY/WX    TMP DP  RH WIND       PRES   REMARKS
DAVENPORT      CLEAR     44  39  82 E3        30.27S
6HR MIN TEMP:  44; 6HR MAX TEMP:  55;

IOWA CITY      PTCLDY    49  42  77 CALM      30.26S
6HR MIN TEMP:  49; 6HR MAX TEMP:  66;

MT. PLEASANT * PTCLDY    50  45  81 CALM      30.24
MUSCATINE *    PTCLDY    45  45 100 CALM      30.26
QUAD CITIES    CLEAR     45  41  86 CALM      30.25S
6HR MIN TEMP:  44; 6HR MAX TEMP:  58;

$$

IAZ062-063-075>077-085>089-095>099-040700-
   SOUTHEAST IOWA

CITY           SKY/WX    TMP DP  RH WIND       PRES   REMARKS
BURLINGTON     CLEAR     53  38  56 SE6       30.25S
6HR MIN TEMP:  50; 6HR MAX TEMP:  64;

FAIRFIELD *    CLEAR     46  41  81 CALM      30.24
FORT MADISON * HAZE      52  41  66 SE5       30.24  VSB 3/4
KEOKUK *       CLEAR     48  46  93 SE3       30.24
OSKALOOSA *    FAIR      52  50  92 SE3       30.24
CENTERVILLE *  FAIR      46  45  93 CALM      30.24F
OTTUMWA        CLEAR     55  43  63 S6        30.23S
6HR MIN TEMP:  52; 6HR MAX TEMP:  62;

WASHINGTON *   PTCLDY    48  43  81 SE3       30.23
$$

ABBREVIATIONS USED IN REMARKS
   TC - TEMPERATURES IN CELSIUS
  WCI - WIND CHILL INDEX
   HX - HEAT INDEX
  VSB - VISIBILITY
$$




USA.gov is the U.S. government's official web portal to all federal, state and local government web resources and services.